Simultaneous Nadir Overpasses (SNOs) Predictions

Prediction of SNOs between LANDSAT-8 and METOP-B Satellite Orbit:

Table of predicted SNOs for the next 14.0 days since TLE Epoch: 1/6/2024
Index Date (LANDSAT-8) Time (LANDSAT-8) Lat,Lon (LANDSAT-8) SZA (LANDSAT-8 ) Date (METOP-B) Time (METOP-B) Lat,Lon (METOP-B) SZA (METOP-B ) Distance(km) Time Diff (sec)
1 01/07/2024 08:51:45 81.26, 89.08 105.63 01/07/2024 08:50:49 81.27, 89.10 105.62 0.71 56
2 01/07/2024 09:41:11 -81.28,-102.94 74.33 01/07/2024 09:41:28 -81.28,-102.88 74.31 1.19 17
3 01/10/2024 04:26:01 81.28, 155.84 105.27 01/10/2024 04:25:18 81.27, 155.80 105.25 0.83 43
4 01/10/2024 05:15:28 -81.28, -36.54 74.74 01/10/2024 05:15:58 -81.28, -36.54 74.73 0.47 30
5 01/13/2024 00:00:17 81.27,-137.90 104.79 01/12/2024 23:59:47 81.27,-137.96 104.77 0.97 30
6 01/13/2024 00:49:43 -81.29, 30.12 75.17 01/13/2024 00:50:26 -81.29, 30.12 75.16 0.20 43
7 01/15/2024 19:34:33 81.27, -71.39 104.28 01/15/2024 19:34:16 81.28, -71.40 104.28 0.29 17
8 01/15/2024 20:23:59 -81.30, 96.65 75.67 01/15/2024 20:24:55 -81.30, 96.72 75.65 1.11 56
9 01/18/2024 15:08:49 81.27, -4.99 103.71 01/18/2024 15:08:45 81.28, -4.90 103.73 1.69 4



Historial Predications of SNOs between LANDSAT-8 and METOP-B
